Terminal Aerodrome Forecast
Issued by NWS Boston, MA

Home | Current Version | Previous Version | Text Only | Print | Product List | Glossary On
Versions: 1 2 3 4 5 6 7 8 9 10 11 12 13 14 15 16 17 18 19 20 21 22 23 24 25 26 27 28 29 30 31 32 33 34 35 36 37 38 39 40 41 42 43
000
FTUS41 KBOX 030537
TAFBOS
TAF
KBOS 030537Z 0306/0412 22006KT P6SM FEW250
     FM031400 09005KT P6SM FEW200
     FM032100 10007KT P6SM VCSH SCT200
     FM040000 09005KT P6SM BKN050
     FM040900 04011G21KT P6SM BKN035=

USA.gov is the U.S. government's official web portal to all federal, state and local government web resources and services.